Today

Time Wind Dr Wind Spd
mph
Wind Gust
mph
Hum In
%
Humid
%
TempI
F
Temp
F
Raw Bar
in
Tot Rain
in
UV Solar
W/sqm
DailyRain
in
HourRain
in
24HrRain
in
RainRate
in
09/04/26 12:01:34 AM 30 0.0 0.0 50 66 72.4 65.4 29.901 7.41 0.0 0 0.00 0.00 0.00 0.00
09/04/26 12:02:26 AM 30 0.0 0.0 50 66 72.4 65.4 29.900 7.41 0.0 0 0.00 0.00 0.00 0.00
09/04/26 12:03:17 AM 30 0.0 0.0 50 66 72.4 65.4 29.899 7.41 0.0 0 0.00 0.00 0.00 0.00
09/04/26 12:04:27 AM 30 0.0 0.0 50 66 72.4 65.4 29.900 7.41 0.0 0 0.00 0.00 0.00 0.00
09/04/26 12:05:18 AM 30 0.0 0.0 50 66 72.4 65.4 29.900 7.41 0.0 0 0.00 0.00 0.00 0.00
09/04/26 12:06:30 AM 32 0.0 0.0 50 66 72.4 65.3 29.898 7.41 0.0 0 0.00 0.00 0.00 0.00
09/04/26 12:07:21 AM 32 0.0 0.0 50 66 72.4 65.3 29.901 7.41 0.0 0 0.00 0.00 0.00 0.00
09/04/26 12:08:34 AM 28 0.0 0.0 50 66 72.4 65.3 29.900 7.41 0.0 0 0.00 0.00 0.00 0.00
09/04/26 12:09:25 AM 32 0.0 0.0 50 66 72.4 65.3 29.900 7.41 0.0 0 0.00 0.00 0.00 0.00
09/04/26 12:10:34 AM 32 0.0 0.0 50 66 72.4 65.2 29.898 7.41 0.0 0 0.00 0.00 0.00 0.00
09/04/26 12:11:26 AM 29 0.0 0.0 50 67 72.4 65.2 29.899 7.41 0.0 0 0.00 0.00 0.00 0.00
09/04/26 12:12:17 AM 28 0.0 0.0 50 67 72.4 65.2 29.900 7.41 0.0 0 0.00 0.00 0.00 0.00
09/04/26 12:13:30 AM 31 0.0 0.0 50 67 72.4 65.2 29.900 7.41 0.0 0 0.00 0.00 0.00 0.00
09/04/26 12:14:21 AM 30 0.0 0.0 50 67 72.4 65.2 29.901 7.41 0.0 0 0.00 0.00 0.00 0.00
09/04/26 12:15:28 AM 30 0.0 0.0 50 67 72.4 65.2 29.902 7.41 0.0 0 0.00 0.00 0.00 0.00
09/04/26 12:16:19 AM 30 0.0 0.0 50 67 72.4 65.1 29.901 7.41 0.0 0 0.00 0.00 0.00 0.00
09/04/26 12:17:35 AM 29 0.0 0.0 50 68 72.4 65.1 29.903 7.41 0.0 0 0.00 0.00 0.00 0.00
09/04/26 12:18:26 AM 31 0.0 0.0 50 68 72.4 65.1 29.900 7.41 0.0 0 0.00 0.00 0.00 0.00
09/04/26 12:19:18 AM 32 0.0 0.0 50 68 72.3 65.1 29.903 7.41 0.0 0 0.00 0.00 0.00 0.00
09/04/26 12:20:24 AM 29 0.0 0.0 50 68 72.4 65.0 29.902 7.41 0.0 0 0.00 0.00 0.00 0.00
09/04/26 12:21:16 AM 32 0.0 0.0 50 68 72.4 65.0 29.904 7.41 0.0 0 0.00 0.00 0.00 0.00
09/04/26 12:22:28 AM 32 0.0 0.0 50 68 72.3 65.0 29.902 7.41 0.0 0 0.00 0.00 0.00 0.00
09/04/26 12:23:20 AM 29 0.0 0.0 50 68 72.4 65.0 29.904 7.41 0.0 0 0.00 0.00 0.00 0.00
09/04/26 12:24:32 AM 32 0.0 0.0 50 68 72.3 65.0 29.904 7.41 0.0 0 0.00 0.00 0.00 0.00
09/04/26 12:25:24 AM 34 0.0 0.0 50 68 72.3 64.9 29.904 7.41 0.0 0 0.00 0.00 0.00 0.00
09/04/26 12:26:30 AM 29 0.0 0.0 50 68 72.3 64.9 29.904 7.41 0.0 0 0.00 0.00 0.00 0.00
09/04/26 12:27:22 AM 29 0.0 0.0 50 68 72.3 64.9 29.903 7.41 0.0 0 0.00 0.00 0.00 0.00
09/04/26 12:28:34 AM 32 0.0 0.0 50 68 72.3 64.8 29.902 7.41 0.0 0 0.00 0.00 0.00 0.00
09/04/26 12:29:26 AM 32 0.0 0.0 50 68 72.3 64.8 29.903 7.41 0.0 0 0.00 0.00 0.00 0.00
09/04/26 12:30:20 AM 29 0.0 0.0 50 68 72.3 64.8 29.904 7.41 0.0 0 0.00 0.00 0.00 0.00
09/04/26 12:31:27 AM 28 0.0 0.0 50 68 72.3 64.8 29.905 7.41 0.0 0 0.00 0.00 0.00 0.00
09/04/26 12:32:18 AM 28 0.0 0.0 50 68 72.3 64.8 29.905 7.41 0.0 0 0.00 0.00 0.00 0.00
09/04/26 12:33:31 AM 34 0.0 0.0 50 69 72.3 64.8 29.905 7.41 0.0 0 0.00 0.00 0.00 0.00
09/04/26 12:34:22 AM 28 0.0 0.0 50 69 72.3 64.7 29.904 7.41 0.0 0 0.00 0.00 0.00 0.00
09/04/26 12:35:35 AM 31 0.0 0.0 50 69 72.3 64.7 29.901 7.41 0.0 0 0.00 0.00 0.00 0.00
09/04/26 12:36:23 AM 31 0.0 0.0 50 69 72.3 64.7 29.903 7.41 0.0 0 0.00 0.00 0.00 0.00
09/04/26 12:37:33 AM 32 0.0 0.0 50 69 72.3 64.6 29.901 7.41 0.0 0 0.00 0.00 0.00 0.00
09/04/26 12:38:27 AM 24 0.0 0.0 50 69 72.3 64.6 29.904 7.41 0.0 0 0.00 0.00 0.00 0.00
09/04/26 12:39:19 AM 32 0.0 0.0 50 70 72.3 64.6 29.902 7.41 0.0 0 0.00 0.00 0.00 0.00
09/04/26 12:40:32 AM 31 0.0 0.0 50 70 72.3 64.6 29.902 7.41 0.0 0 0.00 0.00 0.00 0.00
09/04/26 12:41:23 AM 32 0.0 0.0 50 70 72.3 64.5 29.902 7.41 0.0 0 0.00 0.00 0.00 0.00
09/04/26 12:42:30 AM 28 0.0 0.0 50 70 72.3 64.5 29.904 7.41 0.0 0 0.00 0.00 0.00 0.00
09/04/26 12:43:21 AM 29 0.0 0.0 50 70 72.3 64.5 29.903 7.41 0.0 0 0.00 0.00 0.00 0.00
09/04/26 12:44:34 AM 31 0.0 0.0 50 70 72.3 64.5 29.904 7.41 0.0 0 0.00 0.00 0.00 0.00
09/04/26 12:45:28 AM 29 0.0 0.0 50 70 72.2 64.5 29.905 7.41 0.0 0 0.00 0.00 0.00 0.00
09/04/26 12:46:20 AM 28 0.0 0.0 50 70 72.3 64.4 29.907 7.41 0.0 0 0.00 0.00 0.00 0.00
09/04/26 12:47:26 AM 30 0.0 0.0 50 70 72.2 64.4 29.906 7.41 0.0 0 0.00 0.00 0.00 0.00
09/04/26 12:48:18 AM 31 0.0 0.0 50 69 72.3 64.4 29.907 7.41 0.0 0 0.00 0.00 0.00 0.00
09/04/26 12:49:30 AM 31 0.0 0.0 50 69 72.2 64.3 29.906 7.41 0.0 0 0.00 0.00 0.00 0.00
09/04/26 12:50:22 AM 32 0.0 0.0 50 69 72.2 64.3 29.907 7.41 0.0 0 0.00 0.00 0.00 0.00
09/04/26 12:51:34 AM 31 0.0 0.0 50 69 72.2 64.3 29.907 7.41 0.0 0 0.00 0.00 0.00 0.00
09/04/26 12:52:23 AM 32 0.0 0.0 50 69 72.2 64.3 29.907 7.41 0.0 0 0.00 0.00 0.00 0.00
09/04/26 12:53:32 AM 32 0.0 0.0 50 69 72.2 64.3 29.906 7.41 0.0 0 0.00 0.00 0.00 0.00
09/04/26 12:54:27 AM 29 0.0 0.0 50 69 72.2 64.3 29.906 7.41 0.0 0 0.00 0.00 0.00 0.00
09/04/26 12:55:18 AM 28 0.0 0.0 50 69 72.2 64.2 29.904 7.41 0.0 0 0.00 0.00 0.00 0.00
09/04/26 12:56:31 AM 30 0.0 0.0 50 69 72.2 64.2 29.905 7.41 0.0 0 0.00 0.00 0.00 0.00
09/04/26 12:57:25 AM 34 0.0 0.0 50 69 72.2 64.2 29.906 7.41 0.0 0 0.00 0.00 0.00 0.00
09/04/26 12:58:32 AM 25 0.0 0.0 50 69 72.2 64.1 29.906 7.41 0.0 0 0.00 0.00 0.00 0.00
09/04/26 12:59:23 AM 31 0.0 0.0 50 69 72.2 64.1 29.904 7.41 0.0 0 0.00 0.00 0.00 0.00
09/04/26 1:00:39 AM 32 0.0 0.0 50 70 72.2 64.1 29.903 7.41 0.0 0 0.00 0.00 0.00 0.00
09/04/26 1:01:27 AM 32 0.0 0.0 50 70 72.2 64.1 29.903 7.41 0.0 0 0.00 0.00 0.00 0.00
09/04/26 1:02:22 AM 29 0.0 0.0 50 70 72.2 64.1 29.905 7.41 0.0 0 0.00 0.00 0.00 0.00
09/04/26 1:03:28 AM 31 0.0 0.0 50 70 72.2 64.1 29.904 7.41 0.0 0 0.00 0.00 0.00 0.00
09/04/26 1:04:20 AM 28 0.0 0.0 50 70 72.2 64.1 29.904 7.41 0.0 0 0.00 0.00 0.00 0.00
09/04/26 1:05:29 AM 32 0.0 0.0 50 70 72.2 64.0 29.904 7.41 0.0 0 0.00 0.00 0.00 0.00
09/04/26 1:06:24 AM 28 0.0 0.0 50 71 72.1 64.0 29.903 7.41 0.0 0 0.00 0.00 0.00 0.00
09/04/26 1:07:36 AM 26 0.0 0.0 50 71 72.2 64.0 29.903 7.41 0.0 0 0.00 0.00 0.00 0.00
09/04/26 1:08:25 AM 34 0.0 0.0 50 71 72.2 64.0 29.904 7.41 0.0 0 0.00 0.00 0.00 0.00
09/04/26 1:09:37 AM 28 0.0 0.0 50 71 72.1 64.0 29.902 7.41 0.0 0 0.00 0.00 0.00 0.00
09/04/26 1:10:26 AM 30 0.0 0.0 50 71 72.1 63.9 29.901 7.41 0.0 0 0.00 0.00 0.00 0.00
09/04/26 1:11:20 AM 28 0.0 0.0 50 71 72.2 63.9 29.901 7.41 0.0 0 0.00 0.00 0.00 0.00
09/04/26 1:12:30 AM 32 0.0 0.0 50 71 72.1 63.9 29.901 7.41 0.0 0 0.00 0.00 0.00 0.00
09/04/26 1:13:24 AM 32 0.0 0.0 50 71 72.1 63.8 29.902 7.41 0.0 0 0.00 0.00 0.00 0.00
09/04/26 1:14:34 AM 34 0.0 0.0 50 71 72.1 63.8 29.902 7.41 0.0 0 0.00 0.00 0.00 0.00
09/04/26 1:15:25 AM 31 0.0 0.0 50 71 72.1 63.8 29.901 7.41 0.0 0 0.00 0.00 0.00 0.00
09/04/26 1:16:17 AM 28 0.0 0.0 50 71 72.1 63.8 29.902 7.41 0.0 0 0.00 0.00 0.00 0.00
09/04/26 1:17:29 AM 28 0.0 0.0 50 71 72.1 63.8 29.904 7.41 0.0 0 0.00 0.00 0.00 0.00
09/04/26 1:18:21 AM 28 0.0 0.0 50 71 72.1 63.7 29.903 7.41 0.0 0 0.00 0.00 0.00 0.00
09/04/26 1:19:31 AM 32 0.0 0.0 50 71 72.1 63.7 29.904 7.41 0.0 0 0.00 0.00 0.00 0.00
09/04/26 1:20:22 AM 32 0.0 0.0 50 71 72.1 63.7 29.902 7.41 0.0 0 0.00 0.00 0.00 0.00
09/04/26 1:21:38 AM 30 0.0 0.0 50 71 72.1 63.7 29.903 7.41 0.0 0 0.00 0.00 0.00 0.00
09/04/26 1:22:26 AM 25 0.0 0.0 50 71 72.1 63.6 29.902 7.41 0.0 0 0.00 0.00 0.00 0.00
09/04/26 1:23:21 AM 32 0.0 0.0 50 71 72.1 63.6 29.902 7.41 0.0 0 0.00 0.00 0.00 0.00
09/04/26 1:24:27 AM 29 0.0 0.0 50 71 72.1 63.6 29.901 7.41 0.0 0 0.00 0.00 0.00 0.00
09/04/26 1:25:19 AM 32 0.0 0.0 50 71 72.1 63.6 29.902 7.41 0.0 0 0.00 0.00 0.00 0.00
09/04/26 1:26:31 AM 34 0.0 0.0 50 71 72.1 63.6 29.902 7.41 0.0 0 0.00 0.00 0.00 0.00
09/04/26 1:27:23 AM 30 0.0 0.0 50 71 72.1 63.6 29.903 7.41 0.0 0 0.00 0.00 0.00 0.00
09/04/26 1:28:35 AM 31 0.0 0.0 50 71 72.0 63.6 29.903 7.41 0.0 0 0.00 0.00 0.00 0.00
09/04/26 1:33:31 AM 30 0.0 0.0 50 71 72.1 63.5 29.905 7.41 0.0 0 0.00 0.00 0.00 0.00
09/04/26 1:34:22 AM 26 0.0 0.0 50 71 72.0 63.4 29.902 7.41 0.0 0 0.00 0.00 0.00 0.00
09/04/26 1:35:32 AM 30 0.0 0.0 50 71 72.0 63.4 29.904 7.41 0.0 0 0.00 0.00 0.00 0.00
09/04/26 1:36:24 AM 32 0.0 0.0 50 71 72.0 63.4 29.903 7.41 0.0 0 0.00 0.00 0.00 0.00

University Police wind advisory reference

For campus closure information please call the campus Emergency Hotline at (909) 537-5999

© All rights reserved. Unauthorized duplication or distribution is prohibited

Never base important decisions on this or any weather information obtained from the Internet

California State University, San Bernardino
5500 University Parkway, San Bernardino, CA. 92407
Phone: (909) 537-5108, Email: Weather Webmaster
Last Updated: